TimeCDT,TemperatureF,Dew PointF,Humidity,Sea Level PressureIn,VisibilityMPH,Wind Direction,Wind SpeedMPH,Gust SpeedMPH,PrecipitationIn,Events,Conditions,WindDirDegrees,DateUTC
12:15 AM,34.0,28.9,82,29.88,2.5,NNW,9.2,-,N/A,,Overcast,330,2013-03-25 05:15:00
12:35 AM,34.0,28.9,82,29.88,4.0,NNW,10.4,-,N/A,,Overcast,330,2013-03-25 05:35:00
12:55 AM,33.8,28.4,81,29.88,4.0,NNW,12.7,-,N/A,,Overcast,330,2013-03-25 05:55:00
1:15 AM,33.8,28.4,81,29.88,2.5,NW,12.7,-,N/A,,Overcast,320,2013-03-25 06:15:00
1:35 AM,33.8,28.2,80,29.88,2.5,NW,11.5,16.1,N/A,,Overcast,320,2013-03-25 06:35:00
1:55 AM,33.8,28.4,81,29.89,3.0,NW,8.1,-,N/A,,Overcast,310,2013-03-25 06:55:00
2:15 AM,33.6,28.4,81,29.89,2.0,NW,10.4,-,N/A,,Overcast,310,2013-03-25 07:15:00
2:35 AM,33.4,28.2,81,29.89,2.0,NW,12.7,-,N/A,,Overcast,320,2013-03-25 07:35:00
2:55 AM,33.4,28.2,81,29.89,2.5,NW,11.5,-,N/A,,Overcast,320,2013-03-25 07:55:00
3:15 AM,33.4,28.0,81,29.89,3.0,NW,11.5,-,N/A,Snow,Light Snow,310,2013-03-25 08:15:00
3:35 AM,33.3,27.9,81,29.88,2.5,NW,11.5,17.3,N/A,Snow,Light Snow,320,2013-03-25 08:35:00
3:55 AM,33.3,27.9,81,29.88,2.5,NW,10.4,-,N/A,,Overcast,320,2013-03-25 08:55:00
4:15 AM,33.1,27.9,81,29.88,3.0,NW,10.4,-,N/A,,Overcast,320,2013-03-25 09:15:00
4:35 AM,33.1,27.7,81,29.88,3.0,NW,11.5,-,N/A,,Overcast,320,2013-03-25 09:35:00
4:55 AM,33.1,27.5,80,29.89,3.0,NW,10.4,-,N/A,,Overcast,320,2013-03-25 09:55:00
5:15 AM,33.1,27.5,80,29.89,3.0,NW,11.5,16.1,N/A,,Overcast,320,2013-03-25 10:15:00
5:35 AM,32.9,27.5,81,29.89,2.5,NW,9.2,18.4,N/A,,Overcast,320,2013-03-25 10:35:00
5:55 AM,32.9,27.3,80,29.90,4.0,NW,10.4,-,N/A,,Overcast,310,2013-03-25 10:55:00
6:15 AM,33.1,27.3,79,29.90,5.0,NW,9.2,-,N/A,,Overcast,320,2013-03-25 11:15:00
6:35 AM,33.3,27.3,79,29.91,3.0,NW,11.5,18.4,N/A,,Overcast,320,2013-03-25 11:35:00
6:55 AM,33.1,27.5,80,29.91,5.0,NW,10.4,18.4,N/A,,Overcast,320,2013-03-25 11:55:00
7:15 AM,33.3,27.1,78,29.92,10.0,NW,11.5,-,N/A,,Overcast,320,2013-03-25 12:15:00
7:35 AM,33.4,27.0,77,29.93,10.0,NW,12.7,16.1,N/A,,Overcast,310,2013-03-25 12:35:00
7:55 AM,33.8,26.6,75,29.94,10.0,NW,10.4,-,N/A,,Overcast,320,2013-03-25 12:55:00
8:15 AM,33.8,26.4,74,29.95,10.0,NW,11.5,18.4,N/A,Snow,Light Snow,320,2013-03-25 13:15:00
8:35 AM,33.8,25.7,72,29.96,10.0,NW,12.7,17.3,N/A,,Overcast,310,2013-03-25 13:35:00
8:55 AM,34.0,25.2,70,29.97,10.0,NW,11.5,17.3,N/A,,Overcast,320,2013-03-25 13:55:00
9:15 AM,33.8,23.9,67,29.97,10.0,NW,11.5,18.4,N/A,,Overcast,320,2013-03-25 14:15:00
9:35 AM,34.2,23.9,66,29.98,10.0,NW,11.5,17.3,N/A,,Overcast,320,2013-03-25 14:35:00
9:55 AM,34.2,23.0,64,29.98,10.0,NW,9.2,17.3,N/A,,Overcast,320,2013-03-25 14:55:00
10:15 AM,34.3,22.6,62,29.99,10.0,NW,9.2,17.3,N/A,,Overcast,320,2013-03-25 15:15:00
10:35 AM,34.3,22.5,62,30.00,10.0,NW,10.4,-,N/A,,Overcast,320,2013-03-25 15:35:00
10:55 AM,34.9,22.3,60,30.00,10.0,NW,11.5,-,N/A,,Mostly Cloudy,320,2013-03-25 15:55:00
11:15 AM,35.2,21.9,58,30.01,10.0,NW,10.4,16.1,N/A,,Scattered Clouds,320,2013-03-25 16:15:00
11:35 AM,35.6,21.6,57,30.01,10.0,NW,12.7,18.4,N/A,,Scattered Clouds,310,2013-03-25 16:35:00
11:55 AM,35.6,21.6,57,30.02,10.0,NW,11.5,-,N/A,,Clear,320,2013-03-25 16:55:00
12:15 PM,35.8,21.0,55,30.02,10.0,NW,15.0,19.6,N/A,,Scattered Clouds,320,2013-03-25 17:15:00
12:35 PM,36.5,21.2,54,30.03,10.0,NW,10.4,-,N/A,,Scattered Clouds,320,2013-03-25 17:35:00
12:55 PM,36.1,19.8,51,30.03,10.0,NW,13.8,18.4,N/A,,Clear,310,2013-03-25 17:55:00
1:15 PM,36.1,19.4,51,30.03,10.0,NNW,17.3,-,N/A,,Scattered Clouds,330,2013-03-25 18:15:00
1:35 PM,36.5,20.1,52,30.03,10.0,NW,13.8,-,N/A,,Mostly Cloudy,320,2013-03-25 18:35:00
1:55 PM,36.7,20.1,51,30.03,10.0,NW,15.0,21.9,N/A,,Scattered Clouds,320,2013-03-25 18:55:00
2:15 PM,36.9,20.5,52,30.04,10.0,WNW,15.0,21.9,N/A,,Scattered Clouds,300,2013-03-25 19:15:00
2:35 PM,37.0,21.2,53,30.04,10.0,NW,13.8,19.6,N/A,,Scattered Clouds,310,2013-03-25 19:35:00
2:55 PM,37.4,21.4,52,30.04,10.0,WNW,16.1,19.6,N/A,,Scattered Clouds,300,2013-03-25 19:55:00
3:15 PM,37.6,21.6,52,30.05,10.0,NW,13.8,21.9,N/A,,Scattered Clouds,310,2013-03-25 20:15:00
3:35 PM,38.3,22.1,52,30.06,10.0,WNW,15.0,23.0,N/A,,Clear,300,2013-03-25 20:35:00
3:55 PM,37.4,22.5,55,30.06,10.0,NW,15.0,25.3,N/A,,Clear,320,2013-03-25 20:55:00
4:15 PM,37.6,22.5,54,30.07,10.0,NW,11.5,18.4,N/A,,Scattered Clouds,320,2013-03-25 21:15:00
4:35 PM,38.3,22.8,54,30.07,10.0,WNW,13.8,20.7,N/A,,Clear,300,2013-03-25 21:35:00
4:55 PM,38.3,23.0,54,30.08,10.0,NW,13.8,19.6,N/A,,Clear,310,2013-03-25 21:55:00
5:15 PM,38.3,23.2,55,30.08,10.0,NW,13.8,18.4,N/A,,Scattered Clouds,320,2013-03-25 22:15:00
5:35 PM,38.7,23.4,54,30.09,10.0,NW,10.4,-,N/A,,Mostly Cloudy,310,2013-03-25 22:35:00
5:55 PM,38.7,23.2,54,30.09,10.0,NW,9.2,16.1,N/A,,Overcast,320,2013-03-25 22:55:00
6:15 PM,38.5,23.5,55,30.10,10.0,NW,9.2,-,N/A,,Overcast,320,2013-03-25 23:15:00
6:35 PM,38.5,23.5,55,30.11,10.0,NW,9.2,-,N/A,,Overcast,310,2013-03-25 23:35:00
6:55 PM,38.3,23.9,56,30.12,10.0,NW,8.1,-,N/A,,Overcast,310,2013-03-25 23:55:00
7:15 PM,38.3,24.4,57,30.13,10.0,NW,6.9,-,N/A,,Overcast,320,2013-03-26 00:15:00
7:35 PM,38.3,24.3,57,30.13,10.0,NNW,9.2,-,N/A,,Overcast,330,2013-03-26 00:35:00
7:55 PM,37.6,24.1,58,30.14,10.0,NNW,9.2,-,N/A,,Overcast,330,2013-03-26 00:55:00
8:15 PM,36.7,23.7,59,30.15,10.0,NNW,8.1,-,N/A,,Overcast,330,2013-03-26 01:15:00
8:35 PM,36.9,22.8,57,30.15,10.0,NNW,9.2,-,N/A,,Overcast,330,2013-03-26 01:35:00
8:55 PM,37.4,22.6,55,30.16,10.0,NW,5.8,-,N/A,,Overcast,320,2013-03-26 01:55:00
9:15 PM,37.4,21.7,53,30.16,10.0,NW,5.8,-,N/A,,Overcast,310,2013-03-26 02:15:00
9:35 PM,37.4,20.7,51,30.17,10.0,NW,6.9,-,N/A,,Overcast,310,2013-03-26 02:35:00
9:55 PM,37.4,21.0,52,30.18,10.0,NW,9.2,-,N/A,,Overcast,320,2013-03-26 02:55:00
10:15 PM,36.9,22.5,56,30.18,10.0,NW,6.9,-,N/A,,Overcast,310,2013-03-26 03:15:00
10:35 PM,36.9,23.0,57,30.18,10.0,NW,9.2,-,N/A,,Overcast,320,2013-03-26 03:35:00
10:55 PM,36.7,23.5,59,30.19,10.0,NW,9.2,-,N/A,,Overcast,320,2013-03-26 03:55:00
11:15 PM,36.5,23.7,60,30.19,10.0,NW,9.2,-,N/A,,Overcast,320,2013-03-26 04:15:00
11:35 PM,36.1,23.4,60,30.20,10.0,NW,8.1,-,N/A,,Overcast,320,2013-03-26 04:35:00
11:55 PM,36.1,23.0,59,30.20,10.0,NW,5.8,-,N/A,,Overcast,310,2013-03-26 04:55:00